Regional Weather Roundup
Issued by NWS Northern Indiana

Home | Current Version | Previous Version | Graphics & Text | Print | Product List | Glossary On
Versions: 1 2 3 4 5 6 7 8 9 10 11 12 13 14 15 16 17 18 19 20 21 22 23 24 25 26 27 28 29 30 31 32 33 34 35 36 37 38 39 40 41 42 43 44 45 46 47 48 49 50
000
ASUS43 KIWX 241200
RWRIWX

KIWX WEATHER ROUNDUP
NATIONAL WEATHER SERVICE NORTHERN INDIANA
800 AM EDT SUN JUL 24 2016

NOTE: "FAIR" INDICATES FEW OR NO CLOUDS BELOW 12,000 FEET WITH NO
SIGNIFICANT WEATHER AND/OR OBSTRUCTIONS TO VISIBILITY.

* THESE STATIONS ARE NOT UNDER NWS QUALITY CONTROL. THEY ALSO MAY NOT
  REPORT WEATHER SUCH AS PRECIPITATION OR FOG.

INZ001>027-241300-
NORTHERN INDIANA

CITY           SKY/WX    TMP DP  RH WIND       PRES   REMARKS
GARY*          PTSUNNY   72 N/A N/A S7        29.94R
KNOX*          PTSUNNY   70  68  94 S5        29.96R
SOUTH BEND     MOSUNNY   70  70 100 S3        29.96R
6HR MIN TEMP:  70; 6HR MAX TEMP:  70; 6HR PCP:  0.36;

ELKHART*       CLOUDY    72  72 100 CALM      29.97
GOSHEN         CLOUDY    72  68  87 CALM      29.96R
6HR MIN TEMP:  71; 6HR MAX TEMP:  78; 6HR PCP:  0.18;

MONTICELLO*    CLOUDY    72  66  82 S6        29.97S
6HR MIN TEMP:  70; 6HR MAX TEMP:  76; 6HR PCP:  0.01;

ANGOLA*          N/A     72  63  73 E9        29.93F
FORT WAYNE     CLOUDY    72  70  93 SW7       29.98R
6HR MIN TEMP:  71; 6HR MAX TEMP:  78; 6HR PCP:  0.02;

PERU/GRISSOM   CLOUDY    71  71 100 S7        29.97R
6HR MIN TEMP:  71; 6HR MAX TEMP:  79; 6HR PCP:  0.07;


$$
INZ028>050-241300-
CENTRAL INDIANA

CITY           SKY/WX    TMP DP  RH WIND       PRES   REMARKS
LAFAYETTE      CLOUDY    72  69  90 SE3       29.97S
6HR MIN TEMP:  69; 6HR MAX TEMP:  77;

KOKOMO*        CLOUDY    72  66  83 S7        29.99S
6HR MIN TEMP:  70; 6HR MAX TEMP:  79; 6HR PCP:  0.07;

MUNCIE*        CLOUDY    77  70  79 S3        30.00S
6HR MIN TEMP:  72; 6HR MAX TEMP:  81;

INDIANAPOLIS   CLOUDY    77  68  73 E8        30.00R
6HR MIN TEMP:  77; 6HR MAX TEMP:  79;


$$
MIZ043>046-050>051-056>058-064>065-071>073-077>080-241300-
SOUTHWEST LOWER MICHIGAN

CITY           SKY/WX    TMP DP  RH WIND       PRES   REMARKS
BATTLE CREEK   CLOUDY    70  70 100 S6        29.96R
6HR MIN TEMP:  70; 6HR MAX TEMP:  75; 6HR PCP:  0.62;

BENTON HARBOR  MOSUNNY   72  69  90 S8        29.93R
6HR MIN TEMP:  72; 6HR MAX TEMP:  74; 6HR PCP:  0.49;

COLDWATER*     LGT RAIN  72  72 100 SE3       29.96R
6HR MIN TEMP:  72; 6HR MAX TEMP:  75;

HOLLAND        CLOUDY    73  71  93 S6        29.92R
6HR MIN TEMP:  71; 6HR MAX TEMP:  73;

GRAND RAPIDS   TSTM      72  70  93 SE8       29.92F FOG
6HR MIN TEMP:  72; 6HR MAX TEMP:  75; 6HR PCP:  0.74;

KALAMAZOO      CLOUDY    74  71  91 S7        29.94R
6HR MIN TEMP:  72; 6HR MAX TEMP:  77; 6HR PCP:  0.47;

STURGIS*       CLOUDY    70  70  98 S5        29.96R FOG
6HR MIN TEMP:  70; 6HR MAX TEMP:  75; 6HR PCP:  0.50;

THREE RIVERS*  CLOUDY    73  71  96 S5        29.95R
6HR MIN TEMP:  72; 6HR MAX TEMP:  76;


$$
OHZ001>008-015>018-024>025-241300-
NORTHWEST OHIO

CITY           SKY/WX    TMP DP  RH WIND       PRES   REMARKS
DEFIANCE       CLOUDY    77  70  79 CALM      29.97R
6HR MIN TEMP:  75; 6HR MAX TEMP:  80;

FINDLAY        CLOUDY    77  71  82 S6        29.97S
6HR MIN TEMP:  74; 6HR MAX TEMP:  77;

TOLEDO EXPRESS CLOUDY    75  73  93 CALM      29.95R
6HR MIN TEMP:  72; 6HR MAX TEMP:  77;

TOLEDO METCALF CLOUDY    77  72  84 S5        29.97R
6HR MIN TEMP:  75; 6HR MAX TEMP:  78;

LIMA           CLOUDY    75  73  93 S6        29.99S
6HR MIN TEMP:  72; 6HR MAX TEMP:  77;


$$
AND FOR LAKE MICHIGAN COASTAL AND OPEN LAKE BUOY OBSERVATIONS

STATION/POSITION TEMP    WIND        PRES    VSBY  WAVE
                 AIR SEA DIR/SP/G                  HT/PER
                 (F)     (DEG/KT/KT) (MB)    (MI)  (FT/S)
CALUMET HARBOR    72     170/  7/ 10 1012.5F
MICHIGAN CITY     73     140/ 10/ 13   N/A
BURNS HARBOR      72     180/  7/ 11 1013.9S
SAINT JOSEPH      71     160/  3/  9 1013.5R
SOUTH LAKE BUOY   73 72  160/ 16/ 19 1010.8          2/ 3
4 MI NW BRIDGMAN  72 74  150/ 12/ 14 1013.0F         1/ 2
MICHIGAN CITY     73 73  180/ 10/ 14   N/A           1

$$
&&




USA.gov is the U.S. government's official web portal to all federal, state and local government web resources and services.